Regional Weather Roundup
Issued by NWS

Current Version | Previous Version | Graphics & Text | Print | Product List | Glossary On
Versions: 1 2 3 4 5 6 7 8 9 10 11 12 13 14 15 16 17 18 19 20 21 22 23 24 25 26 27 28 29 30 31 32 33 34 35 36 37 38 39 40 41 42 43 44 45 46 47 48 49 50
620
ASUS44 KBMX 151610
RWRAL

ALABAMA REGIONAL WEATHER ROUNDUP
NATIONAL WEATHER SERVICE BIRMINGHAM AL
1100 AM CDT SUN SEP 15 2019

NOTE: "FAIR" INDICATES FEW OR NO CLOUDS BELOW 12,000 FEET
WITH NO SIGNIFICANT WEATHER AND/OR OBSTRUCTIONS TO VISIBILITY.

THE REMARK "TC" DENOTES TEMPERATURE IN DEGREES CELSIUS.

ALZ001>011-014-016>018-020-151700-
NORTH ALABAMA

CITY           SKY/WX    TMP DP  RH WIND       PRES   REMARKS
MUSCLE SHOALS  FAIR      90  71  53 CALM      30.17F HX  96
HUNTSVILLE     FAIR      87  71  58 VRB3      30.18F HX  93
DECATUR        FAIR      88  71  57 VRB3      30.18F HX  94
HALEYVILLE     FAIR      86  72  62 NE3       30.21S HX  92
GADSDEN        FAIR      84  71  65 CALM      30.17F
$$

ALZ012-013-022-023-030>036-040>044-151700-
WEST CENTRAL ALABAMA

CITY           SKY/WX    TMP DP  RH WIND       PRES   REMARKS
TUSCALOOSA     FAIR      88  70  55 E3        30.14F HX  93
DEMOPOLIS      FAIR      86  70  59 NE5       30.12F HX  91
$$

ALZ015-024>026-033>036-041>044-151700-
CENTRAL ALABAMA

CITY           SKY/WX    TMP DP  RH WIND       PRES   REMARKS
BIRMINGHAM     FAIR      85  70  60 VRB3      30.18F
MONTGOMERY     FAIR      88  69  53 E13       30.12F HX  92
SHELBY CO ARPT FAIR      87  67  51 VRB3      30.15F HX  90
MAXWELL AFB    FAIR      88  70  55 NE6       30.11F HX  93
GREENVILLE     FAIR      86  67  52 E12       30.10F
SELMA            N/A     88  68  51 E10       30.11F HX  91
PRATTVILLE     FAIR      86  69  57 NE8       30.12F
BESSEMER       FAIR      84  70  62 NE5       30.17F
TALLADEGA      FAIR      86  71  59 E3          N/A  HX  91
PELL CITY      SUNNY     84  75  74 VRB5      30.16F HX  92
MARION         FAIR      89  71  54 E3        30.11F HX  96
SYLACAUGA      FAIR      84  67  55 CALM      30.15F
$$

ALZ019-021-028-029-037-038-045>048-151700-
EAST CENTRAL ALABAMA

CITY           SKY/WX    TMP DP  RH WIND       PRES   REMARKS
ANNISTON       FAIR      85  69  58 NE6       30.16F
ALEXANDER CITY FAIR      84  70  62 SE3       30.15F
AUBURN         FAIR     N/A N/A N/A E14       30.16S
$$

ALZ051>064-151700-
SOUTHWEST ALABAMA

CITY           SKY/WX    TMP DP  RH WIND       PRES   REMARKS
MOBILE         FAIR      88  69  53 E13       30.07F HX  92
BROOKLEY FIELD FAIR      87  71  58 E9        30.07F HX  93
EVERGREEN      FAIR      87  70  56 VRB7      30.10S HX  92
$$

ALZ049-050-065>069-151700-
SOUTHEAST ALABAMA

CITY           SKY/WX    TMP DP  RH WIND       PRES   REMARKS
DOTHAN         FAIR      85  68  56 E12       30.12F
OZARK          FAIR      84  69  60 NE12      30.08F
TROY           FAIR      87  71  58 E7G20     30.11F HX  93
EUFAULA        NOT AVBL
$$




USA.gov is the U.S. government's official web portal to all federal, state and local government web resources and services.